Total_Precipitation_Accumulation
0.73 0.63 0.50 0.43 0.35 0.31 0.28 0.24 0.17 0.13 0.09 0.06 0.06 0.09 0.10 0.15 0.25 0.28 0.30 0.31 0.35 0.41 0.39 0.31 0.21 0.13 0.12 0.14 0.19 0.22 0.27 0.34 0.41 0.43 0.37 0.31 0.25 0.16 0.10 0.08 0.08 0.10 0.10
0.82 0.74 0.64 0.57 0.47 0.43 0.46 0.38 0.26 0.19 0.14 0.08 0.05 0.07 0.08 0.12 0.18 0.19 0.23 0.32 0.41 0.40 0.45 0.46 0.39 0.26 0.20 0.20 0.21 0.23 0.26 0.29 0.32 0.36 0.34 0.34 0.30 0.24 0.19 0.16 0.16 0.14 0.11
0.76 0.74 0.70 0.64 0.59 0.59 0.59 0.53 0.38 0.26 0.17 0.10 0.05 0.04 0.05 0.07 0.06 0.07 0.08 0.12 0.23 0.37 0.46 0.49 0.43 0.36 0.30 0.24 0.21 0.21 0.21 0.22 0.26 0.27 0.28 0.27 0.25 0.24 0.23 0.22 0.24 0.22 0.21
0.71 0.81 0.77 0.69 0.66 0.69 0.69 0.66 0.50 0.36 0.22 0.14 0.10 0.07 0.06 0.06 0.05 0.05 0.05 0.05 0.10 0.18 0.33 0.35 0.34 0.36 0.33 0.28 0.22 0.15 0.13 0.13 0.14 0.16 0.19 0.19 0.16 0.16 0.16 0.20 0.25 0.27 0.26
0.80 0.93 0.98 0.94 0.88 0.83 0.76 0.67 0.60 0.50 0.35 0.26 0.20 0.14 0.09 0.07 0.08 0.07 0.05 0.04 0.03 0.08 0.15 0.13 0.13 0.15 0.20 0.23 0.23 0.16 0.11 0.09 0.10 0.12 0.12 0.11 0.09 0.09 0.11 0.14 0.16 0.19 0.21
1.14 1.26 1.23 1.25 1.24 1.05 0.94 0.83 0.73 0.63 0.47 0.37 0.31 0.22 0.14 0.11 0.10 0.11 0.08 0.06 0.04 0.03 0.04 0.05 0.09 0.07 0.07 0.11 0.14 0.15 0.15 0.12 0.10 0.10 0.09 0.08 0.06 0.05 0.06 0.09 0.10 0.13 0.17
1.48 1.66 1.59 1.59 1.54 1.35 1.25 1.26 1.34 1.20 0.87 0.54 0.46 0.35 0.22 0.13 0.11 0.12 0.10 0.08 0.06 0.07 0.06 0.03 0.06 0.07 0.05 0.04 0.05 0.10 0.17 0.18 0.16 0.13 0.10 0.08 0.05 0.04 0.04 0.05 0.08 0.11 0.13
1.37 1.51 1.73 1.76 1.63 1.58 1.66 1.65 1.84 1.87 1.39 0.90 0.79 0.78 0.56 0.38 0.19 0.12 0.12 0.10 0.08 0.10 0.07 0.04 0.04 0.04 0.04 0.03 0.02 0.05 0.09 0.16 0.18 0.14 0.11 0.10 0.07 0.04 0.03 0.03 0.04 0.07 0.10
1.31 1.39 1.55 1.69 1.66 1.67 1.71 1.78 2.03 2.33 2.01 1.46 1.13 1.16 0.92 0.77 0.55 0.24 0.13 0.13 0.12 0.11 0.11 0.10 0.08 0.08 0.07 0.06 0.04 0.02 0.03 0.05 0.11 0.12 0.12 0.12 0.09 0.06 0.05 0.05 0.06 0.08 0.10
1.22 1.28 1.41 1.54 1.63 1.62 1.70 1.75 1.80 2.17 2.36 2.03 1.67 1.29 0.97 0.81 0.78 0.59 0.32 0.21 0.21 0.16 0.15 0.13 0.10 0.10 0.10 0.11 0.12 0.07 0.05 0.05 0.06 0.10 0.13 0.15 0.13 0.11 0.10 0.10 0.11 0.11 0.11
1.35 1.33 1.46 1.51 1.51 1.55 1.63 1.88 2.06 2.26 2.35 2.24 2.07 1.85 1.59 1.24 0.82 0.78 0.76 0.51 0.35 0.25 0.19 0.17 0.15 0.14 0.14 0.13 0.18 0.15 0.10 0.06 0.05 0.11 0.17 0.19 0.17 0.14 0.13 0.13 0.12 0.12 0.12
1.43 1.49 1.55 1.52 1.47 1.49 1.57 1.75 1.96 2.15 2.36 2.44 2.24 1.98 1.83 1.63 1.34 1.13 0.89 0.79 0.67 0.46 0.37 0.33 0.26 0.23 0.24 0.25 0.28 0.33 0.16 0.07 0.05 0.09 0.16 0.20 0.18 0.16 0.14 0.13 0.12 0.12 0.12
1.35 1.38 1.48 1.58 1.64 1.65 1.73 1.85 1.95 1.86 2.03 2.30 2.21 2.00 1.84 1.61 1.50 1.43 1.22 0.96 0.84 0.54 0.38 0.34 0.33 0.35 0.34 0.28 0.36 0.46 0.23 0.13 0.08 0.09 0.11 0.13 0.14 0.14 0.15 0.15 0.13 0.12 0.12
1.31 1.24 1.27 1.38 1.51 1.65 1.66 1.68 1.66 1.60 1.70 1.87 1.91 2.01 2.04 1.79 1.57 1.39 1.25 1.17 0.96 0.77 0.56 0.40 0.29 0.28 0.29 0.28 0.36 0.42 0.25 0.20 0.13 0.09 0.11 0.14 0.14 0.12 0.13 0.15 0.15 0.14 0.14
1.07 1.00 1.00 1.02 1.09 1.16 1.20 1.33 1.39 1.46 1.47 1.56 1.65 1.77 1.90 1.96 1.82 1.55 1.40 1.28 1.15 0.98 0.84 0.66 0.42 0.26 0.28 0.28 0.33 0.27 0.27 0.30 0.23 0.15 0.13 0.15 0.14 0.11 0.11 0.11 0.11 0.10 0.10
0.98 0.90 0.86 0.80 0.76 0.73 0.76 0.92 1.09 1.18 1.26 1.39 1.52 1.61 1.64 1.70 1.83 1.74 1.53 1.44 1.29 1.10 0.95 0.76 0.62 0.40 0.37 0.32 0.32 0.25 0.28 0.34 0.25 0.20 0.15 0.15 0.15 0.11 0.09 0.07 0.06 0.04 0.04
0.96 0.93 0.84 0.76 0.82 0.81 0.76 0.80 0.84 0.87 0.94 1.06 1.19 1.28 1.39 1.64 1.92 1.90 1.81 1.66 1.49 1.29 1.06 0.89 0.66 0.46 0.42 0.39 0.35 0.26 0.24 0.26 0.24 0.23 0.20 0.18 0.16 0.14 0.11 0.08 0.05 0.04 0.03
0.66 0.73 0.79 0.72 0.71 0.73 0.72 0.77 0.81 0.82 0.82 0.87 0.95 1.04 1.15 1.44 1.78 1.96 2.02 1.91 1.74 1.54 1.37 1.22 0.90 0.60 0.51 0.54 0.55 0.48 0.35 0.31 0.31 0.32 0.31 0.26 0.21 0.18 0.14 0.10 0.07 0.06 0.04
0.49 0.53 0.60 0.59 0.65 0.70 0.72 0.73 0.74 0.78 0.81 0.87 0.98 1.01 0.99 1.14 1.35 1.56 1.73 1.81 1.80 1.75 1.66 1.42 1.18 0.92 0.76 0.65 0.62 0.55 0.49 0.49 0.44 0.44 0.48 0.47 0.41 0.34 0.27 0.21 0.16 0.12 0.09
0.50 0.56 0.67 0.71 0.66 0.60 0.63 0.72 0.73 0.69 0.70 0.75 0.80 0.85 0.89 0.89 1.01 1.15 1.29 1.44 1.63 1.80 1.84 1.70 1.45 1.18 1.04 0.83 0.71 0.70 0.71 0.70 0.66 0.54 0.52 0.54 0.55 0.49 0.41 0.33 0.27 0.22 0.19
0.56 0.57 0.67 0.78 0.84 0.78 0.74 0.79 0.75 0.71 0.70 0.70 0.72 0.71 0.76 0.76 0.77 0.87 0.92 1.10 1.41 1.64 1.73 1.76 1.66 1.38 1.16 0.95 0.71 0.67 0.73 0.84 0.84 0.78 0.75 0.64 0.59 0.55 0.53 0.48 0.44 0.39 0.33
0.47 0.46 0.49 0.56 0.65 0.70 0.89 0.83 0.64 0.59 0.63 0.68 0.73 0.71 0.71 0.65 0.63 0.65 0.72 0.79 0.99 1.19 1.34 1.40 1.41 1.29 1.15 1.00 0.88 0.79 0.69 0.64 0.67 0.70 0.68 0.73 0.68 0.63 0.67 0.64 0.66 0.68 0.60
0.40 0.37 0.36 0.36 0.42 0.57 0.64 0.48 0.46 0.49 0.59 0.67 0.73 0.74 0.72 0.67 0.68 0.68 0.66 0.65 0.68 0.77 0.90 1.06 1.13 1.10 1.15 1.05 0.91 0.80 0.73 0.64 0.56 0.57 0.57 0.62 0.63 0.66 0.70 0.71 0.71 0.68 0.63
0.30 0.29 0.36 0.43 0.44 0.45 0.50 0.40 0.39 0.48 0.64 0.74 0.72 0.65 0.70 0.72 0.76 0.79 0.69 0.71 0.67 0.67 0.71 0.71 0.84 1.02 1.10 1.19 1.10 0.93 0.84 0.73 0.63 0.56 0.49 0.47 0.45 0.48 0.50 0.52 0.54 0.48 0.42
0.34 0.37 0.48 0.55 0.48 0.40 0.43 0.43 0.47 0.61 0.72 0.79 0.73 0.71 0.76 0.78 0.90 0.92 0.81 0.84 0.79 0.75 0.72 0.79 0.86 0.92 0.95 0.99 1.03 0.94 0.84 0.73 0.64 0.57 0.48 0.43 0.38 0.32 0.29 0.28 0.29 0.28 0.23
0.31 0.38 0.40 0.37 0.37 0.42 0.47 0.45 0.54 0.72 0.83 0.92 0.87 0.84 1.02 0.98 0.93 0.85 0.80 0.90 0.89 0.73 0.64 0.68 0.70 0.72 0.71 0.73 0.79 0.78 0.80 0.79 0.68 0.59 0.46 0.37 0.37 0.33 0.31 0.25 0.19 0.16 0.12